Theta_e
356 358 359 360 362 362 361 358 353 353 353 353 354 350 347 349 350 354 355 354 356 356 357 358 357 355 356 356 357 355 354 353 352 351 352 353 355 356 356 357 358 357 354 352 353 355 355 357 358 357 357 357 356 355 354 355 357 356 354 354 358 359 357
357 359 360 363 365 365 363 359 355 355 355 355 355 353 351 351 352 355 356 355 357 356 356 358 358 356 356 356 356 356 354 354 354 352 353 354 355 356 356 357 358 358 356 354 353 354 354 355 357 358 357 355 356 356 355 357 357 356 356 356 359 360 358
358 358 359 362 364 362 361 359 356 356 356 355 355 354 352 352 353 356 357 356 357 357 356 358 358 357 357 357 356 356 355 355 355 354 354 354 355 355 356 356 357 358 358 357 355 354 354 354 354 356 357 357 358 359 357 357 357 357 358 358 359 360 358
358 358 361 365 365 361 359 357 355 356 355 355 355 354 352 352 352 356 357 357 357 358 358 358 359 359 359 358 357 357 357 356 356 354 354 355 355 355 356 355 355 356 357 357 357 357 356 354 354 355 358 357 357 359 358 356 355 356 358 358 356 355 356
357 355 358 362 362 359 358 355 352 352 354 356 355 353 352 351 350 353 355 356 357 358 359 359 360 360 360 359 358 358 357 357 357 356 355 355 355 355 354 354 354 355 355 355 356 358 356 356 356 357 359 358 357 359 358 357 356 354 356 357 354 352 354
354 353 355 357 357 358 358 356 354 354 355 357 355 353 352 351 351 351 353 355 356 358 359 359 360 360 360 359 358 359 358 357 358 357 356 356 356 355 353 352 353 354 354 353 354 357 356 357 357 358 360 358 358 358 357 357 358 356 356 358 358 357 356
347 350 352 353 355 356 357 357 357 359 358 357 355 354 352 351 351 352 353 355 356 358 359 358 358 359 360 360 359 358 358 358 358 358 357 357 356 354 352 352 352 351 353 353 354 355 356 357 357 357 359 358 358 358 357 357 358 358 358 359 361 361 359
342 345 348 350 350 351 355 357 357 358 358 357 356 355 354 353 353 353 354 356 356 358 359 358 357 357 359 360 359 359 358 358 358 359 358 357 356 354 351 351 352 351 352 353 353 355 356 356 357 357 358 358 358 358 358 357 358 358 359 359 359 361 360
340 341 342 342 342 344 350 353 356 358 357 357 356 355 355 354 353 354 355 355 356 356 357 357 357 356 357 359 360 359 359 359 358 358 358 357 356 354 351 351 351 350 351 352 353 354 354 355 356 357 357 358 358 357 357 358 358 358 359 359 358 358 359
339 339 339 337 337 340 343 345 349 353 354 355 355 354 354 351 351 354 356 357 357 356 357 357 357 357 356 356 358 358 358 359 360 359 358 357 356 354 351 350 350 350 350 350 351 352 353 354 356 356 357 357 357 357 356 356 357 357 358 357 357 357 357
337 338 337 336 336 338 340 340 341 343 345 347 349 351 353 352 353 355 355 356 356 356 357 356 356 355 352 352 355 356 355 357 358 357 358 357 355 353 351 350 349 349 349 348 349 350 351 352 353 354 356 356 356 356 355 354 355 356 355 355 356 357 356
336 337 336 335 335 336 338 339 338 338 339 340 341 344 348 350 352 352 352 353 353 353 354 351 350 352 350 350 353 354 353 353 354 355 356 357 354 351 350 349 349 349 349 348 348 349 349 350 351 353 354 355 355 355 355 353 353 354 354 354 355 357 357
335 336 335 335 335 335 336 336 336 336 337 337 338 339 341 345 349 350 350 351 350 351 351 349 349 351 350 350 351 352 353 352 352 352 353 354 354 351 350 350 350 349 349 349 348 347 348 348 349 350 352 353 353 354 354 353 353 354 354 354 354 356 356
335 335 336 336 335 335 336 335 335 336 335 335 336 337 339 341 345 348 349 350 350 350 351 351 351 352 350 349 351 352 352 352 351 351 351 351 351 350 349 349 351 351 350 349 348 347 347 348 348 349 350 352 353 353 353 353 353 353 354 354 354 355 355
333 333 334 335 335 335 336 335 335 335 335 334 335 336 338 339 342 345 346 347 348 350 350 350 350 352 351 351 352 352 352 352 352 351 352 351 350 349 349 348 350 352 352 350 349 348 347 346 348 348 348 350 352 352 352 352 352 352 353 354 354 354 355
330 330 332 333 333 334 334 335 335 334 334 334 334 336 337 338 340 342 345 345 346 348 350 349 349 351 352 353 354 354 354 353 352 351 352 352 351 350 350 349 351 353 353 352 350 349 348 346 347 348 348 349 350 351 351 351 351 352 353 353 353 354 354
328 328 328 329 329 329 330 331 332 333 334 334 334 334 336 337 339 341 344 345 344 345 347 348 349 350 351 351 351 353 354 354 354 355 354 353 353 352 352 352 352 353 354 353 350 349 349 348 347 348 349 349 349 351 351 351 351 352 353 353 353 353 353
329 328 327 327 327 327 328 327 327 329 331 332 334 334 334 336 337 338 342 345 343 342 342 344 346 348 348 348 348 350 352 352 354 356 355 354 354 353 353 353 353 354 355 354 352 350 348 348 348 349 351 350 350 350 350 351 350 351 353 355 355 354 354
328 327 326 326 326 327 328 326 325 325 325 327 331 332 332 334 334 336 340 342 343 342 341 342 343 344 344 344 345 347 349 350 351 352 352 353 354 354 354 354 354 355 355 355 354 352 350 348 348 349 350 351 352 351 351 351 350 350 351 353 354 354 355
326 326 326 325 325 326 327 327 325 324 323 323 324 327 331 332 332 334 337 338 338 338 340 340 340 341 341 342 343 344 345 346 348 349 348 349 351 352 352 352 353 353 354 355 355 355 354 352 351 349 350 350 351 352 352 352 352 351 351 351 352 352 353
327 326 325 325 325 325 324 325 325 324 324 323 323 323 326 327 328 329 333 335 334 334 336 337 337 337 338 340 342 343 343 345 347 347 347 348 350 350 349 350 351 351 353 356 355 355 355 354 354 353 352 351 351 352 352 352 354 354 352 351 350 350 350
326 325 324 324 324 323 322 323 324 324 323 323 323 323 324 324 324 324 328 334 334 332 333 334 334 334 334 335 338 341 343 344 345 345 345 347 348 348 348 350 351 351 352 354 355 355 354 354 355 355 354 354 353 353 352 352 354 355 354 352 351 349 348
324 324 323 323 322 322 322 322 323 323 322 322 323 323 324 324 324 323 326 330 331 329 329 331 331 332 332 333 334 336 339 341 342 343 344 345 346 346 346 347 348 349 351 351 352 353 353 354 355 355 355 355 354 354 354 353 354 354 355 355 354 352 349
322 322 322 321 321 321 321 322 322 322 321 321 322 323 325 326 324 323 325 328 327 326 326 326 327 328 329 331 332 333 335 334 334 336 338 342 344 346 347 347 345 346 348 349 350 351 351 353 354 355 355 355 355 356 356 356 356 355 356 356 356 355 354
320 321 320 319 320 320 321 321 321 321 320 320 321 322 324 326 325 323 325 327 327 326 326 326 326 325 325 326 329 332 333 334 333 332 332 334 337 339 342 345 345 346 347 347 348 349 350 351 353 354 356 356 357 357 357 357 357 356 356 356 355 355 355
319 319 319 319 319 320 320 320 320 319 319 319 320 321 322 325 325 325 326 327 327 327 328 327 327 325 323 323 326 328 329 331 333 334 333 333 332 331 333 336 338 342 345 346 346 348 350 351 351 352 353 353 353 353 354 354 356 356 356 356 354 354 354
319 318 318 319 319 319 319 319 319 318 319 319 320 321 322 324 324 324 325 326 326 327 327 327 327 325 323 324 327 328 327 328 329 330 331 332 332 332 332 332 332 332 336 339 339 341 345 349 351 351 351 349 350 350 349 350 352 353 354 353 353 353 353
318 318 319 320 319 319 319 319 318 318 319 319 320 320 321 322 323 323 324 325 324 325 325 325 325 325 325 327 328 327 326 326 326 326 327 328 329 331 332 333 333 332 332 335 335 335 337 340 345 349 350 349 348 349 349 349 350 350 351 351 352 353 354
318 318 319 319 319 319 318 318 318 319 319 320 319 320 320 321 322 323 323 322 323 323 323 324 324 325 326 327 326 325 324 325 326 326 327 327 328 328 328 329 330 332 334 335 335 335 336 336 339 344 348 349 349 351 351 351 351 351 351 351 352 353 354
318 318 319 319 319 318 318 318 319 319 319 320 319 319 320 320 321 322 322 321 322 322 322 323 324 324 325 325 324 324 325 326 327 327 328 327 327 326 325 325 326 329 332 333 334 336 339 341 343 346 349 351 352 351 350 349 350 351 352 352 353 353 354
319 318 319 318 318 318 318 318 319 319 319 319 319 319 320 320 320 321 321 321 321 321 323 323 323 324 325 325 325 325 325 325 326 326 326 326 325 324 324 323 323 324 325 327 329 334 338 343 347 349 350 349 347 344 340 338 341 345 348 350 353 355 355
319 318 318 318 317 318 318 317 317 318 318 319 319 319 319 319 320 320 320 320 321 321 322 322 323 323 324 324 324 324 324 324 325 325 326 326 326 327 327 326 326 326 326 327 330 334 339 344 347 347 343 340 337 334 329 329 332 336 337 340 347 352 352
318 318 317 317 317 317 317 317 317 317 317 317 317 317 318 318 319 319 319 320 320 320 320 321 322 322 322 322 323 323 323 324 325 326 326 326 327 327 327 327 327 327 329 331 332 334 336 339 340 339 336 334 331 327 324 326 331 334 333 334 340 344 343
317 317 316 316 316 316 316 316 316 315 316 316 316 317 317 317 317 317 318 318 318 318 319 319 320 320 320 321 321 321 322 323 324 324 324 323 323 323 322 323 325 325 325 326 327 329 330 330 331 331 330 330 328 325 324 327 331 334 336 336 337 336 335
316 316 315 315 315 315 314 315 314 315 315 315 315 315 316 316 316 316 316 316 316 316 317 317 317 318 319 319 320 320 321 322 322 322 323 323 322 320 319 320 322 324 324 323 322 323 324 324 324 323 323 323 324 324 326 328 330 333 336 337 336 336 335
316 315 315 314 314 314 314 314 314 314 315 314 314 314 315 314 315 315 314 315 315 315 315 316 317 317 318 318 319 319 320 320 320 321 322 323 322 321 320 318 317 319 321 322 322 321 322 323 325 326 326 326 327 327 328 330 332 333 334 334 334 334 333
315 315 314 313 313 313 314 314 314 313 313 313 313 313 313 313 313 314 314 314 314 314 315 316 316 317 317 317 317 318 318 318 319 320 320 320 320 320 320 320 319 320 321 322 323 325 326 327 328 329 328 327 327 327 328 330 332 333 332 331 332 331 329
314 313 313 313 313 314 313 313 313 312 312 312 312 312 313 313 313 313 314 314 314 314 315 315 315 316 316 316 316 317 317 318 318 318 318 319 319 319 320 321 322 323 323 323 324 325 326 327 326 326 326 326 326 327 327 327 329 333 333 332 332 330 326
Wind_Speed
10 10 8 8 9 8 6 10 13 15 20 18 14 20 23 23 28 31 31 32 30 29 27 25 27 27 25 24 22 23 23 20 19 18 17 18 19 19 18 18 18 18 17 16 14 16 16 15 15 14 14 15 13 12 12 12 11 11 12 13 11 11 12
9 9 8 7 7 6 5 10 15 15 17 16 12 14 18 21 26 28 29 30 28 29 28 26 27 27 26 25 22 22 23 21 20 19 18 18 19 19 18 19 18 17 17 16 15 15 16 17 17 16 15 15 13 12 13 13 11 11 13 13 11 11 12
8 8 7 7 7 7 6 10 14 14 15 14 11 13 18 23 27 28 30 31 27 26 26 25 27 27 26 25 23 22 22 22 21 22 20 19 19 20 19 19 18 18 17 16 15 15 15 16 17 17 16 15 14 12 13 13 12 12 12 12 12 11 11
3 4 3 3 5 6 4 7 8 8 12 13 11 12 16 21 25 27 29 32 31 28 25 24 25 27 27 26 25 24 23 22 22 23 22 20 19 19 20 19 18 19 18 16 16 16 15 15 16 18 17 16 15 13 13 13 12 12 12 12 13 12 11
7 6 3 2 4 6 7 9 8 7 11 13 13 13 14 20 23 25 26 28 30 30 28 25 24 25 26 27 26 24 24 24 23 23 23 21 20 20 20 19 19 19 18 17 16 16 16 15 16 18 19 16 16 16 14 13 12 13 13 12 12 12 11
7 8 4 2 4 5 5 9 12 13 15 17 18 18 18 21 23 25 26 27 28 29 30 30 27 25 25 26 26 25 25 25 24 23 24 23 22 21 21 21 20 20 18 16 17 17 17 18 17 18 19 17 17 18 16 14 13 13 13 12 12 12 11
8 9 6 2 3 4 3 6 10 13 14 17 19 20 21 23 24 25 25 26 28 29 30 32 32 28 26 26 26 25 25 26 26 24 24 23 23 22 22 22 21 21 19 17 18 19 18 19 20 19 19 17 17 18 17 15 15 14 14 13 13 12 11
11 10 7 4 5 5 3 3 9 12 12 13 14 14 16 18 21 23 25 26 27 29 31 31 31 30 27 26 26 26 25 26 26 25 24 24 23 23 22 23 22 21 20 19 19 19 18 20 21 19 19 18 18 18 18 17 16 15 15 15 14 14 13
12 10 9 8 9 8 7 5 7 11 12 11 11 11 11 12 14 15 19 22 23 27 30 30 29 27 25 25 26 25 25 26 26 26 26 25 23 23 23 23 23 21 21 20 21 21 20 20 21 19 19 19 19 19 19 19 18 17 17 16 15 15 15
10 9 9 9 10 9 10 10 7 9 11 10 10 10 10 11 11 9 10 13 17 21 25 25 24 22 21 23 24 23 21 23 25 24 25 25 23 22 23 23 23 23 22 21 21 22 22 22 21 20 20 20 20 20 20 20 20 19 19 18 17 16 16
8 8 8 9 9 8 9 11 11 12 13 13 13 11 9 8 8 7 6 6 7 10 12 11 9 8 9 11 14 16 16 17 20 20 20 23 21 20 22 23 23 23 23 23 22 23 23 24 23 22 22 22 21 20 20 20 21 20 19 19 18 17 16
6 7 7 8 7 6 7 9 11 13 15 15 17 17 13 10 8 5 4 3 2 2 2 2 2 5 11 12 9 11 15 17 20 20 19 20 19 16 16 19 23 25 24 24 24 23 24 25 25 24 24 24 22 21 21 20 20 21 20 19 19 18 17
7 7 7 6 6 6 7 8 10 13 15 16 18 20 20 19 16 12 10 11 11 7 5 3 2 5 11 15 13 12 13 16 18 18 17 19 20 16 10 10 16 24 27 27 25 25 25 26 27 26 25 25 25 24 23 21 20 20 21 20 19 19 19
9 8 7 7 7 6 7 8 9 12 14 16 18 19 21 22 21 19 18 19 18 15 15 14 9 4 2 7 9 9 10 11 12 12 12 15 18 18 14 10 10 12 22 29 29 27 26 27 28 29 27 26 27 26 25 24 23 22 22 21 20 20 21
10 9 8 7 7 7 7 7 8 12 14 16 18 18 19 21 21 21 22 21 20 17 17 17 15 12 8 5 4 5 6 8 10 11 9 11 14 17 17 15 13 11 11 22 30 30 28 27 28 30 31 29 28 28 28 27 27 26 25 24 23 23 23
11 10 9 8 7 6 6 7 9 12 14 16 18 17 17 18 18 20 21 20 20 19 17 15 14 12 10 8 7 6 5 3 4 7 7 8 11 15 15 16 15 12 8 11 22 26 27 27 25 27 32 32 29 29 30 29 29 28 28 28 28 27 26
11 10 10 9 8 7 7 8 9 10 11 14 16 17 16 15 16 19 21 20 19 17 15 15 15 13 10 9 10 10 9 10 8 6 4 4 6 9 11 12 12 12 9 7 14 20 22 23 21 20 26 32 32 31 30 30 29 28 29 29 29 29 29
10 10 10 10 8 7 7 8 9 10 11 12 15 16 17 15 16 18 19 20 20 17 12 11 13 14 11 7 8 9 10 10 10 10 9 8 6 4 6 8 9 9 9 7 10 15 18 20 19 14 14 20 27 30 31 31 30 29 28 28 29 30 30
10 9 9 9 8 7 6 7 10 12 13 13 14 14 15 16 17 18 17 19 20 20 17 14 13 14 12 5 3 3 4 5 6 6 6 5 5 3 3 6 7 7 7 7 8 10 13 15 17 15 12 11 15 20 24 27 29 29 28 26 27 29 30
9 9 8 8 8 6 6 7 10 13 14 15 14 12 13 16 16 15 18 21 22 22 21 18 16 15 13 9 5 3 2 2 3 2 1 1 2 2 2 3 5 5 5 6 7 9 11 12 14 16 16 15 14 14 14 16 20 24 26 27 28 29 30
9 9 8 7 7 7 9 10 9 11 14 15 15 14 14 15 14 13 15 20 24 24 23 20 18 16 14 12 10 8 7 7 7 5 3 3 5 5 5 5 5 4 4 5 6 8 10 11 14 15 17 18 18 18 17 14 11 12 14 18 22 26 30
7 8 8 8 8 9 10 11 10 12 15 14 13 14 14 14 14 14 13 18 23 24 22 20 17 15 14 15 13 11 10 11 11 9 6 6 7 6 5 5 5 5 4 5 7 8 10 11 13 14 16 17 17 18 19 18 14 12 10 10 12 17 23
8 10 12 13 12 11 9 9 11 15 17 14 12 13 14 14 13 15 16 16 19 20 19 19 17 14 12 12 12 12 11 11 11 9 7 7 8 8 6 5 5 4 4 6 7 9 10 11 11 12 14 15 15 15 16 16 16 16 15 13 13 13 15
12 14 16 15 13 10 8 9 13 17 15 13 14 14 15 14 12 13 16 15 16 17 17 17 16 14 11 10 9 9 9 8 8 7 5 5 6 6 6 5 5 4 4 4 5 7 8 9 9 10 10 11 11 11 10 9 12 16 19 21 21 19 16
13 17 17 14 11 9 9 11 15 17 15 13 15 15 14 14 12 12 14 15 15 15 15 15 14 13 11 9 7 6 6 6 6 6 4 3 3 4 5 5 5 5 5 5 5 6 6 7 8 9 9 9 9 9 9 10 12 14 18 22 22 20 20
13 16 15 12 10 11 13 14 15 15 14 14 15 15 14 13 13 11 11 12 13 14 14 13 12 11 10 8 7 6 6 6 6 8 7 6 6 6 6 6 6 5 5 5 6 7 7 7 8 9 9 9 10 10 12 15 17 18 20 20 18 17 18
15 15 14 14 14 14 15 15 14 14 13 14 15 15 14 13 12 11 10 11 12 13 12 11 10 10 10 9 8 7 7 7 7 9 9 10 11 11 9 8 7 6 6 6 7 7 8 9 9 9 10 10 10 11 13 16 19 21 22 20 17 16 16
14 13 13 16 15 14 14 14 12 11 13 14 15 14 14 13 12 11 11 12 12 12 11 9 9 10 10 9 9 8 7 7 8 8 9 10 11 12 12 11 10 9 8 8 8 7 8 10 10 10 10 11 10 11 13 15 16 17 18 18 16 15 16
12 11 13 16 15 13 13 13 11 11 15 16 16 15 14 13 12 11 12 13 11 10 9 9 9 9 9 9 10 10 10 10 9 9 9 10 11 13 14 14 13 12 12 10 10 10 10 10 9 9 11 12 12 12 14 15 16 16 15 15 15 16 16
12 12 14 16 15 12 12 11 11 13 16 16 15 15 14 13 12 11 12 12 10 9 10 10 10 9 8 9 11 11 12 12 12 12 12 13 13 15 16 16 15 15 14 13 13 12 11 10 10 10 11 12 12 12 13 14 14 13 13 12 12 14 14
12 12 14 15 13 11 10 11 12 14 15 14 14 13 13 12 12 12 12 10 9 10 10 10 10 10 10 11 11 12 13 13 13 13 13 13 14 15 16 17 16 16 17 17 16 13 13 12 10 7 7 7 9 11 14 15 15 14 13 12 10 10 10
12 11 11 12 10 9 9 10 11 12 12 12 12 11 11 11 11 11 11 10 10 12 12 11 11 11 12 12 12 13 14 14 14 14 14 14 15 15 16 17 17 16 17 17 15 12 11 10 6 4 6 8 10 13 16 17 16 15 15 14 11 9 8
10 9 8 8 8 8 8 9 9 10 9 9 9 9 9 9 9 9 10 10 11 12 12 11 11 11 12 13 14 15 16 16 16 15 16 17 17 16 16 17 17 16 16 15 13 11 11 10 8 8 11 14 16 19 20 18 16 16 16 15 13 11 11
9 7 6 7 8 8 8 8 8 7 7 7 8 8 9 9 9 9 10 11 12 12 12 12 12 13 13 13 14 15 16 17 17 17 17 18 19 19 19 19 19 20 19 18 17 17 16 16 16 17 18 20 23 24 23 20 17 15 14 13 14 17 18
6 6 7 9 8 7 6 5 5 5 5 7 8 8 8 9 10 10 10 11 12 12 12 13 13 12 12 12 13 14 16 17 18 19 20 21 21 22 21 20 20 22 23 22 21 21 21 21 22 22 23 25 26 24 23 23 21 17 16 17 19 21 22
7 7 8 8 6 4 3 2 2 3 6 7 8 8 8 8 9 10 10 11 11 11 12 12 12 12 11 12 13 14 15 16 17 17 19 20 21 23 23 22 22 22 23 23 22 22 21 20 20 21 23 26 27 25 24 24 23 21 21 22 22 21 22
8 7 7 5 2 1 2 1 4 6 7 7 7 8 8 8 9 9 9 10 10 10 11 12 13 13 13 13 13 14 14 15 15 15 16 18 20 22 23 24 24 23 22 22 22 21 19 18 19 21 22 25 27 26 25 24 24 23 22 22 21 20 21
10 7 4 1 3 2 2 6 8 8 7 7 7 8 8 9 9 9 9 10 11 11 12 12 13 14 14 14 15 15 15 15 15 15 16 17 18 18 20 22 23 23 22 22 21 21 21 21 22 22 22 23 25 28 28 27 25 24 22 22 21 20 21
Wind_Direction
190 182 180 170 166 167 165 167 169 166 164 166 162 162 165 161 161 166 170 174 178 180 185 187 187 189 191 193 195 197 196 194 197 198 192 187 187 187 188 190 193 196 200 206 206 204 202 194 199 208 198 200 208 199 198 200 196 200 200 194 194 197 198
184 177 170 166 160 148 139 155 164 168 163 160 152 143 140 144 152 159 165 172 177 182 184 186 188 190 192 194 196 198 199 197 198 199 197 190 188 191 192 193 196 199 202 208 210 208 206 202 204 206 200 202 205 201 203 204 202 203 200 197 196 197 197
174 177 165 161 164 160 160 156 161 166 157 152 151 139 135 145 154 157 163 170 174 180 185 187 188 191 193 195 197 200 201 201 200 200 201 195 191 194 195 196 198 199 201 208 211 210 209 209 207 203 202 205 205 206 210 209 205 202 200 202 204 204 202
137 147 128 128 138 137 122 106 109 119 127 137 149 147 144 151 158 161 166 173 175 177 184 189 190 192 194 195 198 200 201 203 204 203 203 200 197 198 196 197 200 200 201 204 208 210 210 208 203 198 202 207 206 209 214 212 208 205 205 210 213 215 211
44 64 58 46 80 71 70 88 102 119 126 136 148 158 161 161 163 166 172 180 181 177 180 188 190 192 195 196 197 200 201 203 205 205 204 202 202 202 199 199 201 203 204 203 203 205 205 205 200 198 203 205 206 212 216 215 212 210 210 213 217 217 211
62 73 65 15 73 85 115 142 154 153 148 151 158 164 167 167 169 171 176 183 185 183 183 187 189 190 195 198 198 200 202 203 205 205 203 202 203 204 204 204 203 203 205 206 204 202 204 208 204 201 206 206 207 212 215 214 214 215 213 214 219 218 212
55 76 82 41 66 88 131 153 137 125 135 152 161 163 165 169 173 173 176 181 187 191 189 188 190 190 193 198 199 201 203 203 204 205 204 203 205 205 205 207 206 203 206 207 204 202 206 209 206 205 209 209 209 213 214 215 215 217 220 219 222 223 220
46 60 76 55 46 49 30 104 116 112 119 135 143 147 154 166 171 172 177 181 188 196 194 192 191 190 190 194 198 202 204 205 205 205 205 205 208 208 205 206 206 204 207 207 203 202 205 206 204 206 211 211 212 213 215 217 216 217 222 224 225 225 225
52 53 59 45 37 34 22 42 108 119 116 119 126 127 130 150 167 175 181 183 187 195 197 196 192 190 191 194 197 200 203 204 205 207 206 206 209 209 204 206 207 205 206 208 206 205 207 207 205 207 212 213 214 216 217 220 218 216 220 226 229 227 224
59 56 54 46 38 30 26 33 62 92 93 94 108 124 136 152 167 175 178 182 188 195 200 201 197 194 194 191 193 196 196 197 200 204 207 207 211 210 205 206 208 207 208 209 209 208 210 212 209 209 214 215 216 220 222 223 220 215 218 225 230 231 229
61 60 56 51 44 34 34 39 41 52 59 59 66 93 129 152 166 170 161 164 184 196 195 191 187 189 195 194 195 195 192 190 193 198 203 205 209 211 210 210 210 210 211 211 212 211 211 213 213 212 215 218 218 221 223 225 224 220 219 223 228 234 236
63 67 69 62 51 42 43 45 43 47 54 53 52 62 77 92 107 126 132 103 48 319 231 188 187 198 208 221 228 213 203 196 194 198 203 204 206 210 214 216 214 211 210 212 214 215 213 213 215 216 216 217 218 221 224 226 227 226 224 223 227 233 237
73 68 75 75 65 54 50 49 47 48 53 55 55 56 59 66 78 85 81 73 70 78 100 118 211 214 209 216 227 229 219 206 200 204 209 208 210 215 225 238 228 215 210 210 212 216 218 214 214 218 218 218 219 221 223 225 227 229 228 226 228 232 236
87 74 72 75 70 64 60 53 47 48 52 55 58 59 57 58 63 68 71 73 78 92 104 101 91 84 166 207 218 224 222 216 211 211 214 214 217 223 234 261 273 238 215 210 208 213 219 217 214 215 217 220 221 220 221 223 226 229 229 229 228 229 234
95 84 75 70 67 66 67 64 55 51 53 55 56 57 58 58 59 62 67 73 75 84 100 99 86 79 92 124 161 195 214 224 223 220 225 228 226 229 237 250 271 281 242 214 209 210 216 219 218 215 215 218 221 221 221 221 224 227 228 230 230 228 232
102 98 92 81 73 68 67 74 75 68 65 63 59 57 59 61 64 68 71 73 71 75 92 105 98 87 85 86 88 101 120 136 194 218 228 235 234 237 247 255 262 278 284 227 210 209 212 218 221 219 216 217 218 220 220 220 223 226 228 230 231 230 230
99 98 100 97 89 80 72 69 74 75 77 78 70 63 62 64 69 76 80 81 78 78 90 106 109 101 85 66 64 77 93 95 94 110 138 176 218 236 250 261 266 272 281 249 214 209 210 216 223 223 220 218 218 219 219 220 223 227 230 232 233 233 232
102 96 94 94 90 84 77 73 73 70 73 87 88 76 71 72 70 72 79 84 84 80 83 93 96 94 88 67 56 72 88 95 100 108 123 150 172 193 229 248 263 275 280 266 230 216 213 216 222 228 225 220 221 221 220 221 224 227 230 233 236 237 237
107 105 96 91 87 81 79 82 86 81 74 82 93 89 84 81 72 68 76 85 85 80 77 78 80 87 94 90 45 60 86 98 112 116 114 129 146 152 203 228 248 277 291 286 263 243 232 227 229 235 238 235 229 226 225 226 228 229 230 233 238 239 239
95 94 89 86 82 72 66 77 95 98 87 80 79 80 87 87 79 78 88 90 85 79 74 67 61 66 78 86 82 52 23 53 65 53 37 48 30 352 307 261 256 277 301 302 290 274 259 250 246 248 251 254 254 250 246 240 237 237 237 237 239 241 241
96 94 81 73 67 51 42 48 76 101 96 84 75 67 69 75 73 75 91 95 88 82 79 73 61 51 49 55 64 63 57 61 51 25 351 354 357 339 327 321 306 291 295 298 294 288 277 268 264 262 260 262 265 268 270 269 270 270 263 255 252 252 249
100 105 101 89 72 53 38 28 42 75 79 73 76 77 70 65 58 51 68 92 93 87 88 88 81 70 55 44 42 48 54 60 54 33 7 1 1 350 338 331 324 313 294 285 288 290 288 284 283 281 277 274 276 277 275 278 292 308 316 316 301 281 265
92 104 111 104 85 66 50 29 42 70 71 56 59 80 80 68 57 46 51 78 92 87 86 88 86 82 73 56 43 41 44 52 54 42 23 9 359 354 353 346 340 336 313 293 293 295 294 293 295 296 294 292 292 293 290 288 290 290 289 292 299 297 285
96 95 97 95 87 74 53 38 55 76 75 49 46 69 77 69 61 47 40 56 81 85 81 80 78 74 68 60 52 45 40 45 48 44 38 22 354 342 344 349 355 1 353 327 311 307 302 294 288 286 291 298 301 303 304 292 278 275 270 265 265 268 270
83 85 83 79 82 80 63 52 62 73 67 45 45 61 71 72 70 55 38 40 59 72 70 68 70 66 55 49 53 47 33 29 27 23 31 34 354 332 328 336 352 9 9 356 343 333 318 298 285 278 278 283 284 287 293 285 273 268 264 263 269 272 270
73 79 81 75 72 74 70 60 58 61 55 44 48 56 64 72 71 59 44 40 46 52 52 51 49 41 33 35 45 40 22 6 354 350 353 353 350 348 342 337 342 352 354 349 347 344 332 317 305 294 287 285 284 286 287 282 272 263 261 269 283 291 288
75 76 80 79 70 66 67 61 53 51 50 50 54 54 57 66 65 52 46 48 45 39 36 33 20 9 12 22 31 28 18 6 351 339 336 335 336 340 346 348 346 341 335 332 332 331 326 320 315 310 307 308 308 303 294 285 277 271 270 278 285 282 280
73 70 75 80 72 62 62 60 49 46 50 53 55 53 53 58 56 48 48 47 39 27 19 13 2 356 1 13 16 9 357 348 338 328 325 326 324 325 330 336 339 338 336 335 331 322 312 307 306 308 312 317 320 313 303 300 301 297 291 291 290 280 271
75 64 67 73 67 56 57 54 42 44 52 53 52 51 51 52 49 48 49 43 31 15 5 0 357 358 3 4 356 347 342 339 336 332 330 328 326 324 322 322 323 324 324 325 322 314 305 302 306 309 310 313 316 316 315 317 319 318 313 303 293 287 282
74 65 66 69 61 49 45 42 39 45 49 46 45 44 42 42 42 42 42 35 19 6 3 4 5 7 5 353 342 340 340 338 334 332 329 326 323 320 317 317 317 314 310 309 311 311 310 310 313 312 309 310 316 324 335 341 341 338 333 322 305 296 292
72 66 66 67 61 48 41 39 40 43 42 38 37 35 32 31 31 31 30 21 5 4 11 14 11 8 1 351 344 341 336 332 329 326 323 321 319 315 313 314 313 308 304 301 299 301 307 309 310 318 328 331 336 344 348 347 344 344 345 340 326 310 302
78 70 66 65 62 53 46 44 42 40 39 36 31 25 23 22 20 19 16 6 359 8 17 17 8 2 357 350 342 335 331 329 328 326 322 320 320 319 319 317 316 316 315 309 302 301 311 316 321 354 358 346 339 341 339 334 328 327 330 332 327 317 318
88 82 76 72 73 66 55 49 44 39 35 32 26 20 18 17 14 11 9 4 2 7 10 8 3 358 352 345 338 333 332 330 326 323 323 325 326 327 328 327 330 338 344 342 338 338 339 342 345 342 335 328 325 326 326 323 317 313 313 315 313 306 306
100 98 94 88 81 71 60 51 43 34 25 23 25 22 16 15 13 9 7 7 7 7 6 6 5 359 351 344 338 335 337 339 339 337 337 337 335 334 334 336 338 341 340 339 341 343 341 337 332 328 323 318 316 317 317 312 308 307 304 300 300 303 303
112 104 93 85 73 60 53 42 27 22 25 30 30 22 12 8 7 4 2 1 1 2 0 358 356 352 347 342 339 338 341 345 345 342 342 342 338 331 327 326 328 329 326 322 322 323 323 321 317 314 310 306 304 304 304 302 302 302 298 294 297 302 303
127 105 86 76 62 46 27 355 2 36 38 32 25 14 6 1 356 354 355 354 354 355 352 350 351 349 345 342 338 337 340 341 338 335 336 338 335 330 321 313 311 316 319 319 318 317 316 316 314 311 307 304 301 298 294 293 295 298 297 297 299 300 300
130 109 90 77 53 290 282 335 53 56 42 27 14 3 359 354 349 349 350 348 348 349 349 351 353 350 345 341 335 331 330 328 325 323 323 322 322 321 317 312 310 312 314 317 319 320 319 316 312 309 306 304 302 299 292 287 288 291 294 296 298 299 299
119 107 107 175 237 245 54 58 57 47 31 18 3 350 349 348 345 346 347 345 345 346 347 349 349 344 338 334 329 325 321 318 316 313 310 307 307 310 311 311 311 311 310 310 311 311 311 309 306 303 302 301 301 300 297 293 289 287 288 290 291 295 300